Location: Clarion
(42.7316°N, 93.7330°W)
Time: 09:08:06
(UTC+00:00)

H-2A R/B - Pass Details

Date: 22 April 2026
Orbit: 478 x 548 km, 98.3° (Epoch: 17 May)

Event Time Altitude Azimuth Distance (km) Brightness Sun altitude
Exits shadow 10:01:51 23° 266° (W) 1,097 3.3 -14.2°
Drops below altitude 10° 10:04:39 10° 317° (NW) 1,680 4.7 -13.8°
Sets 10:07:02 0° 333° (NNW) 2,557 5.8 -13.4°
